Weather History for Georgetown, DE

Change the Weather History Date:

Wednesday, February 20, 2013

  Actual Average Record
Temperature  
Mean Temperature 36 °F 38 °F  
Max Temperature 42 °F 48 °F 68 °F (2002)
Min Temperature 29 °F 29 °F 0 °F (1979)
Degree Days  
Heating Degree Days 29 27  
Month to date heating degree days 566 564  
Since 1 July heating degree days 2784 3074  
Cooling Degree Days 0 0  
Month to date cooling degree days 0 0  
Year to date cooling degree days 0 0  
Moisture  
Dew Point 16 °F    
Average Humidity 50    
Maximum Humidity 62    
Minimum Humidity 37    
Precipitation  
Precipitation 0.00 in 0.10 in 0.54 in (1979)
Month to date precipitation 1.20 1.97  
Year to date precipitation 4.00 4.89  
Sea Level Pressure  
Sea Level Pressure 29.98 in    
Wind  
Wind Speed 9 mph (NW)    
Max Wind Speed 22 mph    
Max Gust Speed 30 mph    
Visibility 10 miles    
Events      
T = Trace of Precipitation, MM = Missing Value Source: NWS Daily Summary

Daily Weather History Graph

Daily Weather History Graph

Search for Another Location

Airport:

Trip Planner

Search our weather history database for the weather conditions in past years. The results will help you decide how hot, cold, wet, or windy it might be!

Date:

Astronomy

Feb. 20, 2013 Rise Set
Actual Time 6:45 AM EST 5:45 PM EST
Civil Twilight 6:18 AM EST 6:12 PM EST
Nautical Twilight 5:47 AM EST 6:42 PM EST
Astronomical Twilight 5:17 AM EST 7:13 PM EST
Moon 1:06 PM EST (2/20) 3:02 AM EST (2/20)
Length of Visible Light 11h 53m
Length of Day
10h 59m
Waxing Gibbous, 76% of the Moon is Illuminated
Feb 20
Waxing Gibbous
Feb 25
Full
Mar 4
Last Quarter
Mar 11
New
Mar 19
First Quarter

Hourly Weather History & Observations

Time (EST) Temp. Windchill Dew Point Humidity Pressure Visibility Wind Dir Wind Speed Gust Speed Precip Events Conditions
12:54 AM 39.9 °F 34.5 °F 27.0 °F 60% 29.84 in 10.0 mi WNW 8.1 mph - N/A   Clear
1:54 AM 39.0 °F 34.0 °F 21.9 °F 50% 29.85 in 10.0 mi WNW 6.9 mph - N/A   Clear
2:54 AM 37.0 °F 34.5 °F 21.9 °F 54% 29.87 in 10.0 mi Variable 3.5 mph - N/A   Clear
3:54 AM 35.1 °F - 21.9 °F 59% 29.87 in 10.0 mi Calm Calm - N/A   Clear
4:54 AM 34.0 °F 29.8 °F 21.9 °F 61% 29.89 in 10.0 mi NW 4.6 mph - N/A   Clear
5:54 AM 34.0 °F 26.6 °F 17.1 °F 50% 29.91 in 10.0 mi WNW 9.2 mph 18.4 mph N/A   Clear
6:54 AM 33.1 °F 30.0 °F 17.1 °F 52% 29.95 in 10.0 mi WNW 3.5 mph - N/A   Clear
7:54 AM 34.0 °F 29.8 °F 18.0 °F 52% 29.97 in 10.0 mi Variable 4.6 mph - N/A   Clear
8:54 AM 36.0 °F 29.6 °F 15.1 °F 43% 29.98 in 10.0 mi NW 8.1 mph 18.4 mph N/A   Clear
9:54 AM 36.0 °F 28.0 °F 14.0 °F 41% 29.98 in 10.0 mi WNW 11.5 mph 27.6 mph N/A   Clear
10:54 AM 36.0 °F 26.3 °F 14.0 °F 41% 29.99 in 10.0 mi WNW 16.1 mph 27.6 mph N/A   Partly Cloudy
11:54 AM 35.1 °F 25.5 °F 15.1 °F 44% 30.00 in 10.0 mi WNW 15.0 mph 25.3 mph N/A   Overcast
12:54 PM 37.0 °F 29.3 °F 15.1 °F 41% 29.98 in 10.0 mi WNW 11.5 mph 24.2 mph N/A   Mostly Cloudy
2:54 PM 37.9 °F 28.9 °F 14.0 °F 38% 29.98 in 10.0 mi WNW 16.1 mph 29.9 mph N/A   Scattered Clouds
3:54 PM 37.0 °F 28.1 °F 14.0 °F 39% 29.99 in 10.0 mi NW 15.0 mph 24.2 mph N/A   Clear
4:54 PM 37.0 °F 28.1 °F 14.0 °F 39% 30.00 in 10.0 mi WNW 15.0 mph 24.2 mph N/A   Clear
5:54 PM 34.0 °F 27.2 °F 14.0 °F 44% 30.03 in 10.0 mi NNW 8.1 mph - N/A   Clear
6:54 PM 33.1 °F 26.1 °F 12.9 °F 43% 30.06 in 10.0 mi NW 8.1 mph - N/A   Clear
7:54 PM 30.9 °F 24.3 °F 12.0 °F 46% 30.08 in 10.0 mi NW 6.9 mph 17.3 mph N/A   Clear
8:54 PM 30.0 °F 21.7 °F 10.9 °F 45% 30.09 in 10.0 mi NW 9.2 mph 23.0 mph N/A   Clear
9:54 PM 28.9 °F 19.2 °F 9.0 °F 43% 30.12 in 10.0 mi NW 11.5 mph 20.7 mph N/A   Clear
11:54 PM 27.0 °F 20.5 °F 10.0 °F 49% 30.12 in 10.0 mi NW 5.8 mph - N/A   Clear